RH
96 99 93 86 86 89 86 84 80 79 76 66 56 40 33 50 46 30 48 71 80 82 54 39 39 74 75 68 67 63 61 53 56 67 67 70 75 77 83 78 78 78 80
100 91 89 90 85 88 88 86 84 82 78 62 50 34 34 51 45 36 38 66 83 88 65 39 48 73 71 66 72 75 71 58 61 70 73 75 76 81 84 76 75 82 84
100 90 74 90 86 82 86 87 84 78 76 50 38 34 44 58 47 34 32 36 49 56 73 67 68 62 70 66 71 66 60 56 54 56 70 77 78 78 74 67 74 86 87
96 85 75 68 80 87 81 84 81 75 69 54 41 40 52 53 56 54 30 31 66 56 40 50 42 55 65 75 70 67 56 54 73 78 69 64 59 44 52 62 67 82 90
98 83 70 66 61 60 71 83 85 80 74 67 60 49 55 63 62 60 57 44 29 33 35 28 33 26 71 78 70 68 52 67 84 86 82 54 35 29 24 34 62 82 92
100 82 77 80 93 99 90 87 84 83 83 79 72 72 67 63 65 59 61 81 36 25 23 26 25 27 62 79 74 70 58 77 93 89 73 63 52 39 34 28 43 82 90
100 98 89 94 92 93 94 98 99 98 88 85 84 79 75 69 68 64 46 58 74 65 42 44 69 63 52 68 78 72 73 83 91 94 90 64 44 40 37 30 29 74 82
97 100 99 93 90 83 75 80 89 91 97 98 94 88 81 76 71 72 64 44 42 59 70 71 66 67 68 72 81 81 73 82 87 99 86 69 45 61 62 36 30 43 83
94 96 99 100 100 95 91 77 78 88 87 84 86 89 90 88 83 78 75 66 44 39 45 66 63 66 69 79 84 78 71 82 89 84 93 75 51 65 76 78 56 32 81
65 78 86 90 99 97 93 89 89 90 85 85 88 87 84 92 96 87 82 80 63 56 41 39 52 64 73 84 82 73 70 74 82 80 83 78 58 64 69 80 69 39 67
35 41 53 71 85 90 94 93 93 90 89 85 85 83 84 88 85 92 94 86 83 77 60 43 42 58 74 79 81 82 75 64 71 82 82 80 72 64 65 71 65 80 77
27 28 30 38 58 76 87 91 94 95 91 90 88 88 87 89 88 86 97 96 93 87 78 72 48 48 62 76 83 78 69 66 67 81 78 72 80 67 64 72 80 66 81
26 25 26 26 30 41 60 77 87 99 100 100 97 91 91 90 89 88 88 98 93 98 93 82 75 62 42 54 70 90 79 64 71 84 72 71 73 74 63 71 84 73 61
23 22 22 23 23 25 31 43 62 79 90 94 99 100 98 95 91 93 91 88 92 97 100 97 88 80 55 46 68 87 84 78 55 76 71 70 69 70 73 74 76 86 76
22 21 20 20 20 20 20 22 28 44 64 78 88 98 99 100 100 99 97 94 99 100 98 100 100 92 83 68 52 75 81 87 78 67 66 68 69 67 72 66 76 82 84
20 18 17 17 17 18 18 17 17 17 21 31 51 67 76 91 98 100 100 100 100 99 98 99 99 100 93 87 80 66 68 78 77 75 69 69 72 67 67 75 79 77 77
19 17 16 15 14 14 14 14 15 14 13 14 15 19 29 43 58 76 93 99 100 100 96 96 98 96 100 91 85 82 77 78 77 76 78 79 71 78 69 71 80 73 60
18 16 14 13 12 12 11 11 11 11 11 11 12 12 11 12 15 24 45 53 87 96 99 100 98 96 100 99 86 86 85 82 78 76 74 81 81 77 81 72 79 83 75
16 14 13 12 12 11 10 10 9 9 9 9 9 9 9 9 8 9 10 13 20 51 74 94 100 100 100 98 96 90 88 90 83 80 78 80 83 80 80 83 80 76 81
16 13 12 11 10 10 10 10 10 9 9 9 9 8 8 8 7 7 7 7 8 9 18 32 78 98 100 98 100 94 95 97 93 83 83 76 82 85 81 85 80 79 78
16 13 12 11 11 10 11 11 11 11 10 9 9 8 8 8 7 7 7 7 6 6 7 8 18 53 87 100 97 99 100 100 97 93 89 84 74 81 85 93 90 81 78
19 16 15 14 13 12 11 10 10 9 8 8 7 7 7 7 7 6 6 6 6 6 6 6 8 10 36 87 96 100 100 100 97 78 76 80 78 67 79 82 93 90 89
21 19 18 17 16 15 14 12 11 10 9 7 7 6 6 6 7 7 7 7 7 7 6 6 6 9 11 27 71 99 100 100 97 94 89 83 76 66 53 61 69 92 95
25 23 22 20 20 19 17 16 15 15 13 12 13 10 8 9 9 10 11 11 12 12 10 9 10 11 12 10 17 62 100 100 100 98 88 85 86 83 69 54 50 60 82
29 26 26 25 24 22 21 21 19 18 21 18 17 16 14 12 13 15 17 17 16 16 18 19 15 17 18 16 13 16 43 77 96 99 100 89 87 78 81 70 60 53 74
34 31 30 29 28 25 24 24 24 26 25 25 25 24 22 20 18 19 21 23 23 22 22 22 23 22 23 25 15 15 21 47 56 94 99 98 100 91 85 76 83 82 85
Wind_Speed
20 15 12 8 5 5 5 5 6 5 6 6 8 8 9 7 6 7 6 6 7 5 7 9 9 8 9 8 11 12 12 13 14 15 16 16 16 16 15 13 14 16 17
18 18 14 10 8 7 6 6 6 6 7 6 7 8 8 7 6 5 5 5 7 6 7 7 8 6 7 6 10 13 14 14 14 14 14 14 15 15 13 13 13 15 15
20 16 8 14 10 6 5 6 6 6 7 7 7 7 8 8 7 4 3 3 2 2 1 3 5 4 4 4 9 11 11 12 12 11 12 11 12 13 13 12 12 12 12
12 14 14 3 13 7 3 4 5 6 6 6 7 6 6 7 7 6 3 1 2 1 2 1 2 4 4 3 7 8 12 15 16 13 7 7 7 6 7 8 8 9 10
11 9 11 14 6 6 6 1 2 2 4 5 6 5 4 6 6 6 4 2 1 2 1 1 2 3 5 5 6 8 11 13 13 11 5 2 3 2 3 5 6 7 7
9 6 4 5 5 2 5 4 3 2 1 3 4 4 4 4 4 6 4 2 1 1 0 3 4 5 6 5 6 7 9 9 8 1 2 2 2 1 3 4 8 8 8
9 3 5 3 5 7 5 3 4 1 2 2 2 4 4 4 5 5 5 4 3 2 0 1 3 4 6 6 7 8 8 9 6 2 2 1 1 0 1 5 7 10 9
9 7 2 5 5 7 8 7 6 7 6 4 2 2 5 6 6 6 5 4 5 5 4 4 4 4 5 7 7 6 8 8 6 4 6 3 1 1 2 1 7 11 10
9 7 6 1 4 5 7 8 8 7 8 6 7 5 4 4 8 8 8 6 6 6 6 7 7 6 7 7 7 7 6 9 5 4 3 4 0 1 2 3 2 10 14
8 8 7 6 3 3 5 7 9 8 10 10 9 8 7 6 5 9 10 9 8 8 8 8 10 10 10 9 9 8 7 8 7 3 8 5 3 0 1 2 3 7 13
7 7 8 7 7 5 5 5 8 10 12 12 10 10 9 10 10 9 10 10 12 10 10 10 9 11 12 10 10 9 10 9 5 5 9 9 8 4 3 5 5 5 8
7 8 9 8 7 7 6 7 7 8 10 12 13 12 10 11 12 13 11 10 11 13 13 14 11 14 15 14 14 13 13 12 8 8 15 15 13 10 6 8 9 9 12
12 10 9 10 9 8 8 8 8 10 10 12 12 13 13 13 13 15 13 15 14 12 16 18 17 16 18 16 14 14 13 15 11 14 19 18 16 14 9 11 14 12 12
9 10 12 11 10 10 9 9 9 9 9 11 12 13 15 16 16 16 15 16 18 17 17 20 23 22 21 19 18 14 17 10 14 13 21 20 18 17 12 15 15 16 12
10 10 9 10 11 11 11 10 9 10 10 10 11 12 13 15 17 17 18 18 18 17 21 21 21 26 27 25 23 22 21 19 17 18 21 22 17 20 17 18 17 18 15
10 11 11 10 9 10 12 12 12 11 12 12 12 12 13 14 15 16 17 20 23 22 23 25 28 25 28 31 29 28 27 27 24 19 23 23 22 22 22 20 20 19 18
8 9 11 12 13 12 11 11 13 13 13 13 13 13 15 15 15 17 17 17 17 24 27 31 29 31 33 35 31 31 30 28 29 28 21 25 26 20 26 24 22 20 18
8 10 11 12 13 14 14 13 13 14 16 16 16 15 16 17 18 18 18 20 19 17 21 28 32 37 28 41 37 31 33 32 32 28 29 27 29 30 26 29 25 24 21
9 10 11 12 14 15 16 17 17 17 17 18 20 20 20 19 20 21 20 20 21 22 23 21 19 23 28 25 43 35 34 36 35 31 31 29 32 34 32 30 29 27 24
9 11 12 12 13 14 15 17 18 20 21 21 22 23 25 25 25 24 24 23 23 23 23 25 23 23 22 28 23 40 37 37 36 34 34 33 31 34 34 33 31 33 28
9 10 12 14 16 17 19 20 20 22 24 25 26 27 27 27 28 29 28 28 27 26 26 27 28 28 24 20 21 32 39 37 33 35 35 34 38 37 37 35 34 31 30
7 10 12 14 16 17 20 21 22 23 23 24 26 28 29 29 29 29 30 30 30 30 28 28 28 29 25 20 19 14 20 30 38 42 35 40 37 39 43 38 37 35 32
6 9 12 14 16 18 19 19 20 20 21 24 26 27 27 30 31 30 29 29 31 30 30 30 29 28 29 23 22 16 8 6 21 37 40 39 42 38 40 45 43 39 35
5 7 10 12 15 17 18 19 20 22 23 24 25 26 28 28 28 30 31 29 29 30 30 30 30 30 28 29 29 20 17 20 9 12 34 45 42 38 40 43 47 46 44
5 8 10 12 15 16 17 18 18 19 21 22 24 26 26 27 29 29 29 31 31 30 30 30 31 31 31 30 29 32 31 30 32 20 12 25 35 45 42 44 46 49 49
6 8 12 14 17 19 20 19 19 20 21 22 24 26 27 29 29 30 31 30 32 32 32 32 33 33 33 33 32 31 32 28 31 26 24 19 27 36 36 35 40 44 47
Wind_Direction
23 48 41 35 35 42 39 53 55 47 42 28 28 30 36 46 49 64 80 68 79 101 102 102 108 104 98 99 110 111 103 103 101 99 104 107 106 100 96 97 104 106 111
66 69 40 43 50 35 24 26 32 30 22 19 20 22 31 40 47 60 90 91 80 98 81 86 103 104 102 115 114 110 103 100 99 101 105 107 106 103 100 96 103 113 115
80 87 89 12 32 46 42 18 13 12 15 10 10 18 27 41 49 44 70 113 108 125 107 108 111 126 112 136 130 118 107 100 99 104 107 109 109 108 104 94 100 110 117
87 108 113 11 2 4 44 60 9 5 10 8 5 16 36 39 42 34 44 94 150 152 229 246 158 151 148 156 140 124 117 108 96 83 74 131 130 122 119 110 107 118 117
102 128 134 139 141 320 336 71 113 31 358 1 1 11 22 31 29 30 24 50 346 301 272 203 195 183 161 165 154 139 125 114 107 118 177 115 137 163 162 161 139 135 137
90 166 147 159 199 211 194 207 180 182 187 342 344 338 360 6 6 4 359 351 16 327 353 158 178 188 181 181 169 157 143 119 101 135 135 171 51 154 238 213 170 156 160
81 135 205 224 255 248 250 280 306 261 229 247 315 310 312 316 330 339 336 318 301 321 291 203 178 181 199 202 182 166 147 127 111 49 343 345 317 132 189 219 190 171 171
57 74 127 225 247 255 263 261 264 288 312 294 258 265 293 299 303 309 309 305 301 287 267 263 256 225 220 198 190 185 159 147 143 156 267 341 35 75 65 150 209 179 170
55 50 54 97 239 257 276 271 266 264 265 275 281 293 260 269 297 293 305 297 294 286 276 264 263 257 238 212 203 205 192 172 180 201 272 302 126 63 84 98 127 182 168
41 37 29 22 2 284 261 278 285 279 266 265 271 268 271 265 261 288 293 291 282 286 286 274 259 249 246 221 214 215 209 200 195 198 263 261 263 318 302 119 103 157 169
33 22 21 13 7 354 327 287 273 276 282 270 267 266 253 265 269 258 261 275 282 277 276 276 263 246 246 243 239 233 226 215 200 224 256 267 269 236 274 222 195 166 185
17 17 17 15 11 359 348 328 312 291 278 280 276 266 268 263 266 263 259 252 259 269 269 265 258 252 241 243 251 259 247 231 212 225 252 267 257 242 257 242 204 196 209
21 18 19 13 10 -0 355 346 329 330 324 291 282 275 272 265 261 266 255 251 256 254 267 267 258 247 245 241 252 266 277 259 224 243 258 263 255 237 235 256 223 202 205
27 17 11 13 11 8 10 357 350 344 331 317 312 292 282 272 268 265 262 258 261 258 260 265 264 259 252 244 222 249 259 278 215 254 253 266 271 236 232 249 237 222 217
19 27 23 12 5 8 6 5 359 352 344 339 321 328 315 294 283 274 269 263 255 263 260 251 261 264 258 250 233 220 230 245 248 239 252 259 270 235 235 240 242 229 233
19 13 12 17 13 359 356 359 356 358 352 345 333 329 322 324 317 303 283 271 265 261 258 261 257 255 259 260 251 242 234 230 227 234 249 256 261 246 236 241 237 230 235
17 13 6 5 4 3 2 349 343 346 343 341 336 333 330 326 319 315 317 300 290 276 266 261 264 260 255 256 255 246 244 245 230 230 238 253 254 248 236 241 242 234 232
15 10 12 12 7 6 4 0 356 348 342 336 331 330 330 327 325 320 312 311 305 307 284 273 267 257 271 256 250 252 251 248 245 237 233 244 249 254 245 242 241 237 232
19 17 13 10 6 2 1 1 360 355 350 345 340 335 333 330 327 323 319 315 313 305 303 299 283 270 261 270 248 251 254 251 245 244 238 233 247 250 249 239 240 237 235
28 26 26 23 18 11 2 355 351 350 350 347 344 342 339 336 332 327 321 317 313 309 307 307 299 291 287 260 276 252 259 250 250 241 247 238 235 243 246 244 238 240 241
30 31 29 22 17 9 2 357 351 347 343 340 339 338 334 333 331 329 325 321 317 312 310 310 306 301 288 283 273 256 228 239 236 239 244 249 238 237 241 243 238 235 235
28 29 24 18 13 8 2 357 353 346 342 337 332 329 328 327 326 325 325 321 317 313 308 306 309 306 300 295 297 297 239 237 244 248 255 246 243 240 239 240 241 233 231
24 18 13 8 4 360 355 349 343 337 332 330 329 328 328 327 326 324 322 318 315 313 310 308 305 305 302 291 290 288 320 267 257 243 243 237 247 243 242 241 238 235 235
8 3 1 359 355 352 348 345 343 340 337 335 331 327 325 325 323 321 319 316 313 311 308 305 303 300 298 293 289 285 250 264 310 258 242 242 240 245 248 244 242 240 232
335 341 347 348 346 344 343 341 337 334 332 330 327 326 324 320 319 319 317 314 311 309 307 304 299 297 296 292 287 285 282 273 265 283 248 241 241 246 249 245 244 241 234
315 328 336 341 343 341 337 335 333 331 329 328 328 326 324 322 319 317 316 313 310 308 305 302 300 297 295 292 285 282 283 288 278 278 294 294 242 237 237 244 243 240 236